Starlink 31851

operational
NORAD ID: 59844 Int'l Des: 2024-097 Owner: SPXS Country: US Constellation: starlink
LEOCIRCULAR

Starlink 31851について

説明を読み込み中...

リアルタイム位置

3D地球を読み込み中...

次回通過

高度履歴

Altitude vs Time

uPlot chart will show altitude changes over time

軌道要素

1 59844U 24097K 26035.17828260 .00003313 00000-0 12984-3 0 9999
2 59844 43.0003 103.4414 0002022 283.0497 77.0128 15.27582914 96798
Epoch: Feb 4, 2026 • Age: 6 hours

現在のステータス

高度 493.5 km
速度 7.62 km/s
衛星直下点 -39.57°S, 111.8°E
打ち上げ日 May 23, 2024
運用期間 1.7 years
タイプ internet

技術仕様

分類 Payload
質量 730.00 kg
乾燥質量 700.00 kg
総質量 730.00 kg
長さ 0.30 m
直径 4.10 m
スパン 29.00 m
形状 Box + pan
製造者 SPXS
バスタイプ Starlink V2M
フェーズステータス In Orbit
所有者/国 SPXS/US

大規模コンステレーション

Loading constellations...